2023-007C (55250 NORAD) Tracking and Keplerian Element Data

This shows tracking and keplerian element data for the satellite.

Feedback or suggestion? Click here.




ElementValue
Catalog55250
Name2023-007C
Epoch Orbit1695
Epoch Day126.46295968
Epoch Year2023
RAAN199.0614
Inclination97.359
Eccentricity0.0008269
Argument of Perigee216.8393
Mean Anonmoly266.8299
Mean Motion15.25902032
Decay Rate0.00021583
L11 55250U 23007C 23126.46295968 .00021583 00000+0 84227-3 0 9996
L22 55250 97.3590 199.0614 0008269 216.8393 266.8299 15.25902032 16951



Live tracking and technical data element details for 2023-007C (NORAD 55250). 2023-007C can be tracked NOW for your location showing map with azimuth and elevation plus other details from your city location.







IsCatalogInMostPopularTable: catalog: 55250, numindb: -1

Insert: records affected: 1


GetName: 55250 2023-007C

Hit Count: inserted at: Mon, 05 Jun 2023 19:14:18 GMT